Wind_Speed
21 21 21 21 22 21 21 20 19 18 16 16 15 13 12 11 9 8 8 8 7 7 6 5 5 6 5 5 5 5 5 4 4 4 4 5 5 5 5 5 5 5 6 6 6 7 7 8 9
22 22 22 23 23 22 21 21 19 18 17 16 14 13 12 11 10 9 9 9 8 7 7 7 6 6 5 4 5 5 5 4 3 4 5 5 5 4 5 5 5 5 6 5 5 7 7 8 8
21 22 22 24 24 23 23 21 20 20 18 16 15 13 12 11 11 10 10 10 9 8 7 6 6 6 6 5 5 4 4 3 4 4 5 5 4 4 4 5 5 5 6 6 5 6 7 8 8
20 22 23 24 23 23 22 21 21 20 18 17 16 14 12 12 12 10 11 11 10 10 8 7 6 6 6 5 5 5 4 4 4 5 6 5 4 4 4 5 5 5 6 6 6 6 8 9 9
19 22 24 24 23 23 22 21 20 19 18 17 16 15 14 13 12 11 10 11 11 10 9 8 7 6 6 6 6 5 5 5 5 6 6 6 5 5 5 5 5 5 5 6 6 7 7 8 8
18 21 22 23 23 23 22 22 20 19 19 18 17 15 14 13 13 12 11 11 11 10 10 10 8 7 6 7 7 6 6 6 7 7 7 6 6 5 5 5 5 5 5 6 7 7 7 7 7
19 20 20 22 22 22 22 21 20 20 19 19 18 16 15 14 13 12 12 11 11 10 10 10 10 8 8 8 8 8 8 8 8 8 7 6 6 5 5 5 5 5 5 5 6 6 7 7 7
18 19 19 20 20 21 22 20 21 21 20 19 19 18 16 15 14 13 12 12 11 10 10 9 10 9 8 8 8 8 8 9 8 8 7 6 5 5 5 5 5 5 5 5 5 6 7 6 6
17 17 19 20 19 20 20 20 21 21 21 20 20 19 17 16 15 14 13 12 11 10 10 10 10 9 9 9 9 8 9 9 8 7 7 6 6 5 5 5 5 5 4 5 5 5 6 5 5
15 15 18 19 19 19 19 19 21 22 21 20 20 19 18 17 16 15 14 12 12 11 10 9 9 9 8 8 8 8 8 8 7 7 7 6 6 5 5 5 5 5 4 4 4 5 5 5 5
12 13 16 17 19 19 19 19 20 21 21 20 20 19 18 17 16 15 15 14 13 12 11 10 9 9 8 8 8 8 7 7 6 6 6 6 5 5 4 4 4 4 4 4 4 4 4 4 5
10 12 14 15 17 18 19 19 20 21 21 21 20 18 17 17 17 16 15 14 13 12 11 11 10 9 9 8 8 8 7 7 6 6 6 5 4 4 4 4 4 4 4 4 4 4 4 4 4
9 11 12 13 15 18 19 19 19 20 21 21 20 19 17 17 17 17 15 14 14 12 12 11 10 9 9 8 8 7 6 6 6 5 5 4 4 3 3 3 4 4 4 4 4 3 3 4 4
8 8 9 11 12 15 16 17 18 20 21 21 20 19 19 18 18 18 16 15 14 12 11 11 10 9 8 8 7 6 5 5 5 4 4 3 3 2 2 2 2 2 2 3 3 3 3 3 3
6 6 7 8 10 12 14 16 18 19 20 21 20 19 19 19 19 18 17 16 14 13 11 11 10 10 9 8 7 6 5 5 4 4 3 3 2 1 1 2 2 2 2 3 3 3 3 3 4
5 5 5 7 9 11 13 16 17 18 18 19 20 20 19 18 19 18 17 16 15 14 13 12 11 10 9 9 8 7 6 5 4 3 3 3 2 1 0 2 2 2 3 3 3 3 4 4 5
2 2 5 6 7 9 12 13 15 16 17 18 18 18 19 18 18 18 17 16 16 15 14 13 12 11 10 9 8 7 6 5 5 4 4 3 3 2 2 1 2 2 3 3 4 4 5 5 5
2 2 4 6 7 7 9 12 13 15 17 17 18 18 18 18 18 18 16 16 15 15 14 13 12 11 10 10 9 8 6 5 5 4 3 2 2 2 2 1 1 2 3 4 4 4 5 6 6
4 3 3 5 6 5 7 10 11 13 15 16 16 17 17 17 17 17 16 15 15 14 14 13 12 12 11 10 9 8 7 5 4 3 3 3 3 2 2 2 2 3 3 4 5 5 6 6 7
6 5 3 4 4 6 7 8 9 10 12 13 14 15 16 16 16 15 15 15 15 14 13 13 12 11 11 10 9 8 7 6 5 5 4 5 4 3 3 4 4 4 5 5 6 7 7 7 8
8 6 3 3 4 6 7 7 8 9 11 11 13 13 14 14 14 13 14 14 14 14 13 13 12 11 10 9 9 8 8 7 6 5 5 5 5 4 4 5 5 6 7 7 8 8 9 9 10
10 7 5 5 6 8 8 10 8 9 9 10 11 12 12 12 13 12 12 12 13 13 13 13 12 12 11 10 9 9 8 8 7 7 6 6 6 5 5 5 6 7 8 8 9 9 10 11 11
13 10 8 7 8 10 10 11 9 8 9 10 10 10 10 11 12 11 10 10 11 12 13 12 12 12 11 10 10 10 9 8 8 8 8 8 7 6 6 6 6 7 8 8 9 10 11 12 12
13 12 11 10 10 11 10 12 10 9 8 8 8 9 9 9 10 10 10 10 11 11 11 11 11 11 11 11 10 10 10 9 9 9 9 9 9 8 7 7 7 8 8 9 10 11 11 11 12
15 15 14 12 12 12 12 13 12 9 8 9 9 8 7 8 8 8 8 9 10 11 11 11 10 11 11 10 11 10 10 10 10 9 10 10 10 9 9 8 8 8 8 9 10 11 11 12 12
15 17 16 15 14 13 13 14 14 11 10 9 8 7 7 7 7 6 7 8 9 10 11 11 11 12 11 11 11 11 11 11 11 11 11 11 10 10 10 9 9 9 9 10 10 10 11 12 13
17 17 17 17 16 16 15 14 14 12 12 11 8 7 9 8 7 6 7 8 9 10 10 11 11 11 11 10 10 10 10 11 11 11 12 11 11 11 10 10 10 10 9 10 10 11 12 12 13
17 16 17 18 18 19 17 15 14 13 11 10 8 7 8 7 6 7 6 7 9 9 10 11 11 11 10 10 10 10 11 11 11 11 11 12 12 12 11 11 11 11 11 11 11 11 12 13 13
20 20 19 19 19 19 18 16 13 11 9 9 8 8 8 7 8 8 7 7 9 10 11 11 11 11 11 11 11 11 12 12 12 11 12 12 13 13 12 12 13 12 12 12 12 12 13 13 13
21 21 21 21 20 21 21 18 14 12 11 10 9 9 9 9 8 8 8 8 9 10 11 12 12 12 13 13 14 14 13 13 13 13 13 13 14 14 14 14 14 14 13 13 13 13 13 14 15
Wind_Direction
54 52 48 44 44 42 43 41 36 40 40 40 37 35 37 41 50 53 55 62 66 68 67 71 88 96 95 103 106 108 116 120 125 139 148 152 156 159 155 153 149 150 157 155 151 148 147 145 145
49 48 47 45 42 41 42 40 35 37 38 40 37 36 39 47 52 53 56 59 65 71 73 77 78 87 92 99 108 120 120 124 130 139 143 149 154 158 153 153 153 152 155 158 153 153 153 153 152
49 46 45 45 42 38 39 39 35 35 34 37 38 38 40 49 54 55 57 60 65 72 77 74 78 85 87 94 109 117 125 133 138 140 145 149 146 143 144 144 146 152 152 152 151 156 158 155 154
50 48 45 42 41 40 40 38 36 34 33 35 38 38 42 50 57 56 58 61 65 66 70 76 81 82 81 87 103 106 108 124 134 138 142 142 137 139 145 151 151 152 151 152 153 153 160 161 161
47 43 42 40 38 39 40 39 36 32 32 36 40 40 45 54 57 58 57 58 62 64 65 71 83 85 83 83 92 95 91 107 119 129 133 131 128 131 139 147 153 151 152 158 156 152 160 163 162
43 41 42 38 36 38 40 40 38 33 35 38 41 43 46 51 55 58 60 61 60 63 63 65 72 76 77 80 83 90 88 99 109 121 124 124 125 127 129 140 145 147 143 152 158 158 160 159 161
41 41 40 37 36 37 40 40 39 38 38 39 41 43 46 52 56 59 59 58 61 62 63 66 70 69 72 76 81 85 86 94 104 111 117 122 123 124 124 130 140 143 147 146 147 156 156 157 158
46 41 39 38 36 36 37 39 41 41 38 39 42 45 48 51 53 55 58 60 62 63 64 67 71 69 73 75 79 85 88 95 102 105 110 117 119 122 124 131 139 141 141 141 139 148 148 148 150
45 40 38 39 37 37 38 39 42 42 39 40 42 43 46 50 53 54 56 57 59 61 63 63 68 69 72 74 79 88 95 99 103 104 107 110 113 118 120 129 135 140 141 143 142 146 145 147 154
46 38 39 40 38 39 41 41 44 43 41 41 41 43 46 49 52 56 58 56 59 62 63 65 69 71 76 79 81 87 94 97 98 101 105 107 110 117 120 126 134 139 143 148 149 155 158 159 162
51 43 40 37 35 36 37 41 44 44 42 43 42 44 47 50 52 55 59 59 61 63 64 67 70 71 76 83 85 87 90 96 98 100 104 109 111 115 115 128 137 143 146 148 152 161 166 168 170
55 46 38 37 35 34 35 35 38 40 41 43 44 45 46 49 51 51 53 58 61 63 64 67 70 71 72 77 82 85 90 96 97 98 100 103 105 109 113 123 137 143 148 152 155 160 170 171 172
64 50 41 38 33 34 35 34 35 36 38 38 40 40 41 47 48 49 52 55 59 61 64 67 71 74 74 74 79 82 85 86 91 94 95 99 106 113 119 122 132 140 151 158 156 154 167 175 185
84 69 51 40 35 33 32 32 33 36 35 36 39 40 41 42 42 47 49 51 53 54 59 62 66 70 74 76 78 75 73 73 81 84 91 88 96 116 132 132 144 156 167 166 168 175 184 184 204
88 72 58 43 31 31 28 28 32 33 32 31 34 38 39 41 41 42 44 47 50 53 56 60 62 67 72 76 76 73 74 80 81 76 78 82 85 108 153 156 182 202 203 193 193 205 208 208 220
84 61 38 40 29 23 21 27 29 30 30 27 29 34 37 39 42 41 43 47 51 53 54 56 61 65 68 70 71 73 73 73 72 72 66 64 65 61 203 192 197 205 208 213 219 227 228 222 227
99 42 8 14 21 10 13 19 21 25 27 24 24 30 34 36 40 41 43 46 49 52 52 55 58 59 61 63 65 68 70 70 70 71 68 61 56 49 37 188 208 226 227 226 230 235 235 236 239
218 312 336 345 349 357 5 11 16 22 23 24 23 29 34 35 37 38 41 44 47 49 50 52 52 53 54 55 58 59 60 62 64 63 60 49 42 32 10 318 235 240 242 239 240 239 242 249 252
220 244 312 328 337 344 354 4 16 22 22 20 22 27 32 34 33 35 38 41 44 45 45 47 49 49 48 49 49 49 47 47 42 26 12 357 346 338 326 317 279 262 258 252 251 251 253 257 258
227 245 278 324 353 346 348 359 3 14 13 11 18 26 28 29 32 34 39 42 43 43 43 43 43 43 42 42 40 40 38 36 30 21 9 358 346 326 316 311 297 285 277 269 260 256 257 259 261
221 239 250 297 320 323 331 334 340 3 12 11 12 19 22 25 31 35 39 40 41 41 41 41 40 38 36 35 35 31 25 23 19 12 3 352 346 335 320 306 294 285 277 272 271 267 263 263 262
227 230 240 285 293 294 315 321 326 347 3 5 8 13 17 23 26 32 34 36 37 36 36 37 37 34 31 31 30 24 19 17 13 9 1 347 337 332 322 307 297 289 285 278 274 271 268 269 269
227 233 236 259 273 281 294 302 314 330 346 358 360 3 10 17 21 26 27 28 30 30 30 30 30 28 24 23 25 20 16 15 10 4 358 349 342 334 323 311 303 296 291 285 283 276 273 272 273
226 227 226 243 259 272 280 288 298 312 329 343 347 354 6 16 18 22 23 20 21 22 21 19 19 20 17 14 17 17 14 11 7 2 358 351 343 335 326 319 313 305 299 295 289 285 281 279 277
224 226 230 239 250 265 276 278 288 300 310 326 331 339 358 12 14 16 18 14 12 11 11 11 10 12 10 10 11 10 8 6 2 359 358 355 349 344 334 326 321 315 307 300 296 295 292 287 283
222 225 231 238 246 259 272 279 280 287 298 309 313 326 340 349 359 7 10 5 1 1 1 6 9 9 9 9 7 5 4 2 358 356 356 355 350 346 341 332 329 322 316 311 305 299 298 296 290
224 227 231 239 246 255 265 277 277 279 290 294 291 308 323 331 343 354 357 358 358 357 358 360 1 1 3 4 3 360 358 359 357 356 356 356 351 346 344 340 332 328 323 318 312 307 302 300 297
228 226 231 238 245 253 262 274 280 285 294 288 286 298 313 316 328 340 344 342 345 350 353 355 354 354 354 354 351 351 352 351 348 348 348 349 347 344 342 340 335 326 323 318 313 308 305 303 300
226 227 234 241 244 252 261 269 275 282 297 297 296 299 300 307 312 318 323 330 336 340 342 344 344 343 343 345 346 344 340 340 337 336 339 340 341 338 334 334 333 327 320 317 314 310 304 303 301
231 230 234 239 244 250 257 263 271 276 285 286 289 291 290 298 301 311 319 321 326 329 331 333 333 335 338 341 341 335 334 337 340 332 332 335 335 335 331 329 328 326 322 317 315 312 307 304 303
Height
5904 5902 5901 5900 5899 5896 5894 5892 5891 5889 5888 5886 5884 5883 5882 5881 5881 5881 5878 5875 5875 5875 5874 5874 5873 5874 5874 5874 5874 5874 5875 5875 5876 5876 5877 5877 5878 5879 5879 5879 5880 5880 5881 5881 5881 5881 5882 5882 5883
5905 5904 5904 5902 5900 5898 5896 5894 5893 5892 5890 5887 5886 5885 5884 5882 5881 5879 5877 5876 5876 5875 5875 5875 5874 5874 5875 5875 5875 5875 5875 5875 5876 5876 5877 5877 5878 5879 5879 5880 5880 5880 5881 5881 5881 5881 5882 5883 5883
5908 5907 5907 5904 5901 5900 5899 5896 5895 5893 5891 5889 5888 5886 5885 5884 5882 5880 5879 5878 5877 5876 5876 5876 5875 5876 5875 5875 5875 5875 5875 5874 5875 5876 5877 5878 5878 5879 5880 5880 5880 5881 5881 5882 5882 5882 5882 5882 5883
5912 5911 5909 5906 5903 5902 5901 5898 5896 5895 5893 5891 5889 5888 5886 5884 5883 5881 5880 5879 5879 5878 5878 5877 5877 5876 5876 5876 5876 5875 5874 5873 5873 5875 5877 5878 5879 5880 5880 5880 5881 5881 5881 5882 5882 5882 5883 5883 5884
5914 5912 5910 5908 5906 5904 5903 5901 5899 5897 5895 5892 5891 5889 5887 5885 5884 5882 5881 5881 5880 5880 5879 5878 5878 5878 5877 5877 5876 5875 5874 5873 5873 5875 5877 5878 5879 5880 5881 5881 5882 5882 5881 5882 5883 5883 5883 5884 5885
5917 5914 5913 5911 5909 5907 5906 5904 5902 5900 5897 5894 5892 5891 5889 5887 5885 5884 5883 5882 5882 5881 5881 5880 5879 5879 5879 5878 5877 5877 5875 5874 5874 5876 5878 5880 5880 5881 5882 5882 5882 5883 5882 5883 5883 5883 5884 5884 5885
5919 5916 5915 5915 5913 5911 5909 5907 5905 5902 5899 5897 5894 5892 5890 5888 5887 5886 5885 5884 5883 5883 5882 5881 5881 5880 5880 5879 5879 5878 5877 5876 5876 5878 5880 5881 5882 5882 5883 5883 5883 5884 5884 5884 5884 5884 5884 5885 5885
5921 5920 5919 5918 5916 5914 5911 5910 5907 5904 5902 5899 5896 5894 5892 5891 5889 5887 5886 5886 5885 5884 5883 5882 5882 5881 5881 5881 5880 5880 5879 5879 5879 5880 5881 5882 5882 5883 5883 5884 5884 5884 5884 5884 5885 5885 5885 5885 5886
5923 5925 5922 5921 5919 5916 5914 5912 5910 5907 5904 5901 5898 5896 5895 5892 5891 5889 5888 5887 5887 5886 5885 5884 5883 5883 5882 5882 5882 5881 5881 5881 5881 5882 5882 5883 5883 5883 5884 5884 5885 5885 5885 5885 5885 5885 5886 5886 5887
5927 5926 5925 5923 5922 5919 5917 5915 5913 5910 5907 5904 5901 5899 5897 5894 5893 5891 5890 5889 5888 5887 5886 5885 5884 5884 5884 5883 5883 5883 5883 5883 5883 5883 5883 5884 5884 5884 5884 5885 5885 5885 5885 5886 5886 5886 5886 5887 5887
5929 5928 5926 5925 5923 5922 5920 5918 5915 5912 5910 5907 5904 5902 5899 5897 5895 5893 5892 5891 5890 5888 5887 5887 5886 5885 5885 5885 5884 5884 5884 5884 5884 5884 5884 5885 5885 5885 5885 5885 5886 5886 5886 5886 5886 5886 5887 5887 5888
5930 5929 5927 5926 5925 5924 5922 5920 5918 5915 5913 5910 5907 5905 5902 5900 5897 5895 5893 5892 5891 5890 5889 5888 5887 5887 5886 5886 5886 5886 5886 5886 5886 5885 5885 5885 5886 5886 5886 5886 5886 5886 5886 5887 5887 5887 5887 5887 5888
5932 5930 5929 5928 5927 5925 5924 5922 5921 5918 5915 5912 5909 5907 5904 5901 5899 5897 5895 5893 5892 5891 5891 5890 5889 5888 5888 5887 5887 5887 5887 5887 5887 5887 5886 5886 5886 5886 5886 5886 5886 5886 5887 5887 5887 5887 5887 5888 5888
5932 5932 5931 5929 5928 5927 5926 5925 5923 5920 5917 5914 5911 5909 5906 5903 5901 5899 5897 5895 5894 5893 5891 5891 5890 5889 5889 5889 5889 5888 5888 5888 5888 5887 5887 5887 5887 5887 5887 5886 5886 5887 5887 5887 5887 5887 5887 5888 5888
5933 5933 5932 5930 5929 5929 5929 5927 5924 5921 5919 5917 5914 5912 5909 5905 5902 5900 5899 5897 5896 5894 5892 5891 5891 5891 5890 5890 5890 5889 5889 5889 5888 5888 5888 5887 5887 5887 5887 5886 5886 5887 5887 5887 5887 5887 5887 5887 5887
5934 5933 5932 5931 5930 5930 5931 5929 5926 5923 5921 5919 5917 5914 5911 5907 5904 5902 5900 5899 5898 5896 5894 5893 5893 5892 5891 5891 5890 5890 5890 5889 5888 5888 5888 5888 5887 5887 5886 5886 5886 5886 5886 5886 5887 5887 5887 5886 5886
5934 5934 5933 5932 5931 5931 5930 5929 5927 5925 5923 5921 5919 5916 5913 5909 5907 5905 5903 5901 5899 5898 5897 5895 5894 5893 5892 5892 5891 5891 5890 5890 5889 5889 5888 5888 5887 5887 5886 5885 5885 5885 5886 5886 5886 5886 5886 5886 5886
5934 5934 5933 5932 5931 5931 5929 5929 5928 5926 5925 5922 5920 5918 5915 5912 5910 5908 5906 5903 5902 5900 5898 5897 5896 5895 5894 5893 5892 5892 5891 5890 5889 5889 5888 5888 5887 5886 5886 5885 5885 5885 5885 5885 5885 5885 5885 5884 5884
5934 5934 5933 5932 5930 5930 5929 5929 5928 5927 5925 5924 5921 5919 5917 5915 5912 5910 5908 5905 5904 5902 5900 5899 5897 5896 5895 5894 5893 5892 5891 5890 5889 5889 5888 5887 5886 5886 5885 5885 5884 5884 5884 5883 5883 5883 5883 5883 5883
5932 5932 5932 5931 5930 5930 5929 5929 5929 5927 5926 5924 5922 5920 5918 5916 5914 5912 5909 5907 5906 5904 5902 5900 5899 5897 5896 5895 5894 5892 5891 5890 5889 5888 5887 5886 5885 5885 5884 5883 5883 5883 5882 5882 5881 5881 5881 5881 5881
5931 5931 5931 5930 5930 5929 5929 5929 5927 5927 5926 5925 5923 5921 5919 5917 5915 5913 5911 5909 5907 5905 5904 5902 5900 5899 5897 5896 5894 5893 5891 5890 5889 5888 5887 5886 5884 5883 5883 5882 5881 5881 5881 5880 5879 5879 5879 5878 5878
5928 5930 5930 5929 5929 5928 5929 5928 5928 5926 5926 5925 5924 5922 5920 5918 5916 5914 5913 5911 5909 5907 5905 5903 5902 5900 5898 5896 5895 5893 5892 5890 5889 5887 5886 5885 5884 5882 5881 5880 5880 5879 5878 5878 5877 5876 5876 5876 5875
5927 5928 5928 5929 5928 5928 5928 5928 5928 5926 5925 5924 5923 5922 5920 5919 5917 5915 5913 5912 5910 5908 5906 5904 5903 5901 5899 5897 5895 5893 5891 5890 5888 5887 5885 5884 5882 5881 5880 5879 5878 5877 5876 5875 5874 5874 5873 5872 5872
5924 5925 5926 5926 5926 5926 5927 5927 5926 5925 5924 5923 5922 5922 5920 5919 5917 5916 5914 5913 5911 5909 5907 5905 5903 5901 5899 5896 5894 5893 5891 5890 5888 5886 5884 5883 5881 5880 5878 5877 5876 5875 5874 5873 5872 5871 5870 5869 5869
5922 5924 5924 5924 5924 5924 5924 5924 5925 5924 5923 5922 5921 5920 5919 5918 5917 5916 5914 5913 5911 5909 5908 5905 5903 5901 5899 5897 5895 5893 5891 5889 5887 5885 5883 5882 5880 5878 5877 5875 5874 5872 5871 5870 5869 5868 5867 5866 5865
5919 5920 5922 5922 5922 5922 5922 5921 5923 5922 5921 5920 5919 5918 5918 5917 5916 5915 5913 5912 5911 5909 5907 5905 5903 5901 5899 5896 5895 5893 5891 5889 5886 5884 5882 5880 5879 5877 5875 5873 5872 5870 5869 5868 5866 5865 5864 5863 5862
5915 5916 5918 5919 5919 5919 5919 5919 5919 5919 5919 5918 5917 5917 5917 5916 5915 5913 5912 5911 5910 5908 5907 5905 5902 5900 5898 5896 5893 5891 5889 5887 5885 5883 5881 5879 5877 5875 5873 5871 5870 5868 5866 5865 5863 5862 5861 5859 5858
5911 5913 5914 5915 5915 5915 5915 5915 5916 5916 5915 5914 5914 5915 5915 5914 5913 5912 5911 5909 5908 5907 5906 5904 5902 5899 5897 5894 5892 5890 5888 5886 5884 5881 5880 5878 5876 5873 5871 5869 5867 5865 5864 5862 5860 5859 5857 5856 5854
5907 5908 5909 5910 5911 5912 5912 5914 5914 5914 5913 5912 5912 5912 5912 5912 5911 5911 5909 5907 5906 5905 5904 5902 5900 5898 5895 5892 5891 5889 5886 5884 5881 5879 5877 5875 5873 5871 5869 5867 5865 5863 5861 5859 5857 5855 5854 5852 5850
5902 5903 5905 5907 5907 5907 5908 5912 5910 5910 5910 5909 5909 5909 5909 5909 5909 5908 5906 5905 5904 5903 5902 5900 5898 5896 5894 5892 5890 5887 5884 5881 5878 5876 5874 5872 5870 5868 5866 5864 5862 5859 5857 5855 5853 5851 5850 5848 5847